Zurück zum Katalog

STARLINK-32149

AktivKommunikationVLEO
NORAD 60292·PAYLOAD·🇺🇸 United States

Gestartet Jul 28, 2024 von Cape Canaveral Space Force Station

Loading…

Nächste Überflüge (nächste 24 Stunden)

TLE

AktuellSource: CelesTrak SupGP

Epoche: Sep 14, 2026, 22:22 UTC

1 60292C 24132Q   26257.93243056  .00035872  00000+0  11535-2 0  2573
2 60292  53.1574 252.3589 0001368  96.1928 106.4847 15.31685754    19

Verfolge STARLINK-32149 in Echtzeit mit AllMySat

Download on the App Store